EDT,Max TemperatureF,Mean TemperatureF,Min TemperatureF,Max Dew PointF,MeanDew PointF,Min DewpointF,Max Humidity, Mean Humidity, Min Humidity, Max Sea Level PressureIn, Mean Sea Level PressureIn, Min Sea Level PressureIn, Max VisibilityMiles, Mean VisibilityMiles, Min VisibilityMiles, Max Wind SpeedMPH, Mean Wind SpeedMPH, Max Gust SpeedMPH,PrecipitationIn, CloudCover, Events, WindDirDegrees
2012-3-1,79,70,60,61,48,26,93,54,15,29.89,29.83,29.76,10,10,9,22,12,30,T,2,Rain,237
2012-3-2,69,60,50,61,50,41,86,69,51,29.91,29.80,29.65,10,10,6,16,5,22,0.04,6,Rain-Thunderstorm,32
2012-3-3,63,57,50,61,49,23,93,60,27,29.76,29.68,29.60,10,7,1,21,6,30,1.66,7,Rain-Thunderstorm,280
2012-3-4,53,46,38,30,20,13,52,37,21,30.02,29.85,29.68,10,10,10,24,8,32,0.00,2,,287
2012-3-5,56,46,36,28,20,11,64,42,20,30.45,30.16,29.91,10,10,10,20,9,30,0.00,1,,330
2012-3-6,58,44,29,22,20,17,69,46,23,30.63,30.56,30.47,10,10,10,13,4,15,0.00,0,,114
2012-3-7,66,53,40,47,38,23,72,59,45,30.59,30.52,30.40,10,10,10,12,3,16,0.00,7,,147
2012-3-8,74,64,53,53,49,47,83,62,41,30.39,30.25,30.07,10,10,10,18,8,26,T,7,Rain,202
2012-3-9,65,56,47,57,43,21,100,62,24,30.30,30.17,30.07,10,9,2,20,6,28,0.45,5,Rain,342
2012-3-10,62,51,40,26,21,13,49,32,14,30.48,30.40,30.31,10,10,10,14,6,20,0.00,0,,55
2012-3-11,66,53,39,43,33,24,66,48,30,30.55,30.46,30.38,10,10,10,9,3,14,0.00,1,,69
2012-3-12,66,59,52,56,48,42,93,75,56,30.39,30.33,30.25,10,10,9,14,4,18,T,8,Rain,217
2012-3-13,76,67,57,61,57,55,93,73,53,30.25,30.20,30.11,10,10,10,16,7,22,T,5,Rain,213
2012-3-14,82,69,55,61,53,43,100,63,26,30.24,30.18,30.14,10,6,0,10,4,16,0.00,1,Fog,196
2012-3-15,85,69,53,55,49,44,83,54,25,30.25,30.20,30.14,10,10,10,15,3,20,T,1,,250
2012-3-16,83,70,56,55,53,50,86,60,34,30.23,30.16,30.08,10,10,10,18,5,28,T,3,Thunderstorm,275
2012-3-17,81,69,56,58,55,49,93,64,35,30.22,30.17,30.12,10,10,10,14,4,20,T,4,,288
2012-3-18,78,69,59,60,56,54,93,69,45,30.31,30.22,30.16,10,9,2,13,5,15,0.26,2,Rain,67
2012-3-19,85,71,56,62,55,50,93,63,33,30.20,30.14,30.06,10,10,10,8,2,12,0.00,1,,164
2012-3-20,84,72,60,59,55,52,84,59,34,30.19,30.12,30.07,10,10,7,13,5,17,0.00,1,,174
2012-3-21,79,69,58,60,56,51,93,66,39,30.27,30.20,30.14,10,10,8,13,4,20,0.00,2,,113
2012-3-22,75,67,59,63,61,57,100,84,68,30.26,30.20,30.13,10,8,0,15,2,18,0.05,6,Fog-Rain-Thunderstorm,119
2012-3-23,78,69,60,67,62,59,100,80,60,30.15,30.06,29.95,10,8,0,16,4,22,0.10,5,Fog-Rain-Thunderstorm,184
2012-3-24,77,67,57,63,56,40,100,67,33,29.94,29.84,29.71,10,9,2,22,10,29,0.16,6,Rain,216
2012-3-25,68,61,54,49,47,44,67,60,52,29.86,29.78,29.71,10,10,10,16,6,23,0.01,5,Rain,330
2012-3-26,81,68,55,50,44,33,72,46,19,30.04,29.94,29.84,10,10,10,16,6,24,0.00,0,,346
2012-3-27,69,60,50,45,36,30,55,43,30,30.30,30.20,30.04,10,10,10,13,6,17,0.00,0,,106
2012-3-28,80,65,50,58,49,37,86,61,36,30.21,30.09,29.92,10,10,7,20,10,26,0.00,3,,220
2012-3-29,83,71,58,64,54,49,84,59,34,29.94,29.90,29.86,10,10,10,17,5,21,0.03,3,Rain-Thunderstorm,231
2012-3-30,79,68,56,62,54,40,100,68,35,29.98,29.90,29.84,10,9,2,18,4,23,0.27,5,Rain-Thunderstorm,59
2012-3-31,77,66,55,63,59,54,93,72,50,29.89,29.80,29.73,10,8,1,23,5,32,0.48,5,Rain-Thunderstorm,230